Wind_Speed
71 64 61 63 63 61 58 64 63 57 55 55 56 56 56 57 56 59 62 63 62 58 54 54 53 53 49 48 46 47 47 45 46 47 48 49 49 49 49 49 50 50 49 50 47 46 47
52 48 48 52 52 56 54 57 62 60 59 56 53 50 49 50 48 47 53 59 60 59 58 57 54 55 48 47 46 45 46 45 45 45 47 46 46 48 49 50 52 51 51 50 50 52 51
47 41 42 48 52 60 57 57 58 61 58 56 52 55 54 49 44 43 39 44 50 58 55 52 51 52 49 49 45 44 44 43 43 43 44 44 44 47 48 51 52 52 51 53 57 59 57
40 46 48 47 42 46 47 57 43 43 49 50 54 52 48 50 49 49 45 29 34 40 45 43 45 44 46 45 43 43 39 39 38 41 42 41 42 44 47 50 52 54 56 57 63 64 63
49 52 53 49 42 39 42 35 27 23 23 18 21 23 25 28 31 30 27 33 22 25 30 33 28 34 33 38 36 38 38 37 35 35 38 37 39 41 45 48 51 54 57 61 63 66 65
52 54 53 48 43 40 37 31 22 17 17 14 14 16 14 14 15 19 18 20 21 20 28 26 35 28 34 33 32 31 31 28 27 29 33 33 37 41 45 48 51 55 60 62 55 47 48
53 54 54 52 41 36 31 30 25 21 18 14 12 15 15 14 9 22 25 24 25 27 30 33 23 22 23 22 25 20 17 19 20 24 28 29 32 36 40 43 43 33 17 12 15 19 10
52 54 55 55 48 31 28 34 31 24 20 13 13 14 9 10 9 30 31 40 31 31 24 28 24 26 22 22 19 14 15 14 13 16 17 22 28 24 18 11 7 4 7 7 11 14 17
52 52 55 59 51 31 33 31 33 27 19 13 9 7 8 7 13 40 25 30 34 33 28 27 26 15 14 17 16 14 10 10 11 8 11 17 10 7 7 6 6 5 7 7 7 11 14
57 54 52 58 59 46 29 35 34 12 18 15 10 6 8 6 19 38 42 24 35 25 31 19 27 19 15 18 16 13 13 8 6 7 6 7 6 9 8 7 6 7 4 3 2 6 9
60 67 54 55 59 50 35 35 27 6 8 16 8 6 4 7 20 36 39 29 28 24 23 29 27 27 18 18 16 15 11 11 14 8 5 6 6 5 5 6 3 1 6 6 3 5 5
62 59 51 50 54 52 43 38 22 8 6 2 1 8 8 11 20 43 38 38 28 27 33 35 29 26 23 20 17 16 13 16 14 7 4 5 6 5 3 7 3 6 6 12 7 8 8
62 56 51 45 50 50 51 43 37 22 15 11 13 12 9 19 37 34 35 36 23 25 33 36 30 27 23 19 19 17 13 18 12 4 2 2 6 10 10 4 8 10 9 13 8 10 6
61 53 46 41 45 47 56 47 41 39 32 28 21 20 31 49 40 36 32 29 24 24 22 22 25 25 20 21 17 14 18 16 8 4 6 8 8 8 4 3 4 9 7 1 1 4 6
60 54 46 39 38 41 52 56 52 47 42 45 44 38 42 41 40 39 35 31 30 28 26 28 28 24 23 21 15 16 19 13 6 7 8 10 8 1 5 10 7 9 6 9 8 10 13
56 51 45 34 29 36 40 48 53 49 51 52 43 39 34 37 34 28 28 28 23 21 33 31 29 26 23 16 16 21 16 8 10 11 11 9 8 9 12 10 8 8 6 8 12 13 14
51 50 47 36 28 31 35 37 41 44 42 39 38 32 30 29 29 30 24 24 28 30 33 29 25 21 19 20 23 19 14 15 17 15 9 10 12 11 10 15 15 11 13 16 17 15 18
54 50 48 43 35 28 28 31 33 34 35 34 32 32 32 32 34 36 34 35 30 28 26 25 25 22 25 23 19 12 16 20 15 11 13 15 14 11 11 15 17 15 18 18 16 16 17
61 62 55 52 49 41 35 26 31 25 27 31 28 25 23 25 29 33 30 27 26 28 28 28 29 28 25 19 12 18 22 16 14 13 13 14 14 10 10 13 17 12 17 17 16 17 17
61 65 64 63 65 55 51 46 45 42 39 43 39 35 35 32 31 29 29 31 31 32 34 32 30 25 18 15 19 21 18 17 18 17 16 14 13 11 11 13 12 11 14 14 16 14 15
51 56 62 65 68 66 61 56 51 45 44 43 42 43 41 41 41 41 40 41 40 39 36 30 25 24 25 22 21 19 16 16 14 11 12 13 12 10 9 9 10 10 9 9 11 8 10
41 48 54 57 62 64 62 57 50 46 46 46 42 42 41 39 37 37 36 35 34 30 29 31 29 24 24 23 19 15 13 11 9 8 9 9 7 4 3 2 3 4 2 2 2 3 4
33 38 43 46 51 54 57 56 52 48 45 40 39 37 37 38 38 39 39 38 38 37 34 30 26 25 23 20 18 16 14 11 10 8 6 5 4 4 3 3 2 2 4 5 5 6 7
23 29 34 38 41 46 48 50 49 49 48 44 38 35 34 33 34 34 33 32 31 29 26 24 23 21 19 18 15 13 12 10 10 10 9 8 8 7 7 6 8 9 9 11 12 12 11
15 19 24 31 33 36 40 42 43 43 44 45 41 36 32 27 27 24 23 24 21 19 19 19 16 16 15 12 9 8 7 7 7 7 8 9 8 8 9 11 12 12 11 9 10 13 13
7 10 14 19 26 28 30 34 35 35 35 37 38 36 34 31 30 27 25 23 20 17 18 19 19 18 18 17 15 14 14 13 12 12 11 11 11 10 11 10 10 10 10 9 9 11 11
3 2 5 9 15 20 22 24 27 28 28 29 29 29 29 29 29 27 25 24 24 22 22 21 20 19 19 18 18 18 17 15 15 14 12 11 9 8 8 7 6 7 7 8 8 8 11
9 5 5 1 4 10 15 17 18 22 23 22 23 23 23 23 23 23 22 21 20 20 19 17 17 16 16 15 15 14 13 12 10 9 8 8 7 6 6 5 5 6 7 6 7 8 10
14 11 9 7 5 3 6 10 11 14 16 17 18 19 19 18 18 17 17 16 16 15 15 14 13 12 11 11 11 10 10 10 9 9 8 8 8 7 7 7 8 9 10 10 9 9 10
Wind_Direction
318 314 311 307 302 296 289 283 280 278 277 273 266 258 256 254 252 252 250 246 244 244 245 248 250 251 251 251 252 254 254 254 257 260 261 263 266 268 268 267 270 272 275 279 280 284 280
321 319 319 312 306 301 297 292 290 287 287 284 281 282 267 257 255 252 246 247 246 244 244 244 245 248 248 249 251 253 255 256 257 259 262 264 267 269 270 271 270 270 274 276 280 282 278
336 348 358 348 316 302 299 300 296 290 286 285 286 285 281 276 278 260 255 244 242 242 242 243 243 243 246 248 247 248 251 255 258 260 263 267 269 271 272 273 273 272 273 277 279 279 278
358 0 357 351 332 315 310 307 309 300 292 284 283 286 286 282 282 280 266 251 238 233 234 236 241 241 243 245 244 245 247 250 256 261 265 268 271 273 273 275 276 276 277 278 276 277 276
358 359 1 355 337 330 331 330 323 317 309 297 288 288 285 284 269 258 254 259 242 220 205 223 230 232 235 239 235 240 244 248 253 260 264 268 270 274 275 280 281 282 281 278 276 276 275
360 360 1 354 347 339 339 340 344 341 322 310 288 280 277 264 246 215 203 230 212 189 185 196 210 219 216 232 234 240 243 246 251 259 265 270 274 279 282 281 280 279 276 277 276 274 276
358 360 358 357 349 344 342 349 340 330 331 327 309 303 275 263 214 181 166 214 186 180 178 199 208 195 216 208 207 214 230 248 257 265 272 279 283 284 284 283 281 284 272 263 277 282 282
358 360 359 0 358 346 354 352 343 334 324 322 327 325 308 256 207 163 171 194 185 168 192 183 198 183 174 182 193 204 220 241 257 262 278 290 293 300 300 310 304 288 277 285 284 296 287
356 357 359 360 3 0 347 334 334 311 319 293 290 317 337 228 187 166 156 169 166 168 186 193 184 188 188 188 183 199 210 214 233 268 290 297 293 300 298 294 296 275 273 282 286 333 325
356 352 359 360 3 4 348 335 336 325 318 297 283 298 333 187 178 175 174 139 147 154 174 170 170 189 173 169 171 177 189 197 203 175 239 266 264 271 279 277 262 281 330 351 335 355 15
1 4 2 3 5 7 2 343 344 271 283 278 268 340 40 152 167 173 180 158 141 156 165 166 169 171 169 160 163 178 175 166 151 167 177 187 224 249 247 236 266 50 22 351 45 44 29
3 13 7 9 9 21 15 8 5 40 58 71 77 32 86 114 153 152 168 164 151 162 153 149 148 151 150 159 170 176 164 151 159 162 162 234 217 210 206 150 121 332 308 331 315 6 36
1 12 11 13 16 34 35 38 45 50 53 68 69 61 93 129 136 138 158 151 141 130 141 147 146 144 150 162 162 162 161 156 162 142 136 117 168 181 191 210 308 318 318 334 329 328 350
1 13 11 23 25 44 44 44 48 59 66 76 79 99 124 122 128 139 139 144 143 145 146 145 143 144 151 156 154 163 160 150 135 90 124 126 148 166 176 294 17 55 34 49 227 5 89
5 10 14 27 35 43 52 59 67 77 80 87 96 103 103 112 115 124 133 147 152 149 148 152 154 147 153 148 156 154 146 144 106 122 135 138 149 117 87 88 78 90 58 70 108 112 97
8 8 16 30 48 46 56 59 72 71 73 82 92 90 88 104 111 119 131 138 145 141 156 145 134 139 151 141 125 126 137 118 123 139 138 152 119 109 93 89 81 88 67 80 94 96 93
17 12 22 31 58 54 55 51 57 68 69 72 81 94 98 105 94 103 113 123 116 124 129 130 129 130 127 116 120 120 111 125 142 138 129 110 110 103 82 84 83 90 87 78 80 88 93
34 29 28 31 47 48 55 51 47 56 67 79 73 96 93 99 103 103 101 110 115 118 124 126 121 113 111 112 112 108 121 140 134 114 100 103 113 106 86 75 70 79 90 91 84 87 95
40 43 46 44 49 54 51 47 47 57 67 77 74 83 101 95 99 102 99 99 102 105 111 114 111 110 107 111 110 117 132 127 112 104 99 106 116 108 89 80 88 74 84 86 88 99 104
43 44 47 52 55 63 67 71 70 70 82 89 86 78 82 83 84 89 97 100 103 104 104 104 107 108 104 103 110 113 117 111 109 104 106 105 106 95 92 91 89 83 74 77 84 76 82
43 47 48 49 53 60 71 76 78 81 79 82 84 85 84 85 87 89 92 95 95 95 99 102 105 105 96 101 108 105 104 108 103 94 99 106 102 95 95 95 107 102 93 83 80 71 74
38 45 45 48 47 50 62 74 82 82 81 85 85 79 81 86 88 90 91 94 99 99 98 98 103 100 95 101 112 107 107 108 104 102 108 121 114 122 116 128 134 127 124 95 65 23 45
40 44 51 48 50 47 55 64 71 79 84 85 81 78 77 83 90 95 95 94 94 94 96 98 95 92 94 99 102 103 106 114 116 117 121 113 112 94 57 31 30 94 81 82 88 83 82
45 42 50 54 50 53 50 56 64 67 72 81 87 86 84 81 78 85 93 94 92 90 86 85 85 82 85 90 103 108 104 104 103 104 107 107 105 96 83 75 73 85 91 94 100 100 95
48 48 48 59 58 56 58 56 55 61 63 66 75 81 82 84 83 82 85 83 86 78 74 77 77 72 75 80 86 95 103 104 108 108 109 109 108 108 103 92 79 77 84 79 56 52 50
52 47 51 59 62 60 60 63 64 61 62 65 65 70 74 73 75 76 77 72 68 67 65 62 62 65 69 77 77 79 79 78 84 83 81 80 74 66 64 63 56 44 41 37 42 39 31
336 23 53 55 68 65 63 66 71 68 64 64 67 69 70 71 73 71 70 69 68 65 61 61 62 62 63 64 63 60 58 59 60 60 60 58 55 52 46 47 44 23 26 25 31 27 33
278 266 265 139 85 77 69 67 72 79 74 68 69 65 67 70 67 70 70 69 69 68 69 69 68 62 61 59 56 53 49 46 44 42 39 34 31 29 26 26 21 16 18 17 27 35 26
322 266 253 245 223 163 90 82 75 74 80 80 75 74 68 61 60 58 57 60 63 64 64 59 60 59 57 55 51 47 40 36 34 30 28 25 22 16 16 15 21 19 17 16 9 351 344
Height
5683 5669 5656 5644 5633 5623 5616 5610 5602 5597 5594 5591 5590 5590 5593 5597 5604 5611 5615 5621 5628 5634 5641 5647 5656 5662 5668 5673 5677 5680 5684 5688 5691 5694 5697 5699 5701 5703 5704 5703 5702 5703 5704 5701 5700 5699 5697
5668 5654 5641 5627 5613 5600 5595 5587 5580 5575 5573 5571 5571 5572 5572 5578 5584 5591 5599 5606 5612 5619 5627 5633 5642 5648 5656 5661 5667 5669 5674 5679 5682 5684 5687 5689 5691 5692 5694 5693 5692 5692 5692 5691 5690 5685 5684
5658 5642 5629 5614 5597 5586 5577 5570 5563 5557 5555 5552 5552 5554 5557 5558 5565 5573 5583 5590 5597 5605 5613 5621 5630 5637 5643 5651 5656 5660 5664 5670 5673 5676 5679 5681 5681 5682 5683 5681 5681 5681 5682 5680 5676 5672 5671
5652 5637 5621 5603 5587 5573 5562 5551 5543 5539 5536 5536 5537 5539 5541 5544 5550 5558 5569 5578 5584 5592 5602 5609 5619 5625 5631 5641 5645 5651 5656 5661 5664 5668 5670 5671 5672 5671 5672 5671 5669 5668 5668 5667 5659 5656 5655
5646 5629 5611 5594 5581 5568 5556 5545 5536 5532 5526 5527 5527 5527 5529 5530 5537 5547 5558 5569 5575 5584 5594 5603 5609 5616 5624 5632 5637 5643 5649 5653 5657 5661 5662 5663 5664 5663 5663 5662 5660 5656 5654 5649 5645 5638 5637
5638 5620 5603 5588 5574 5562 5551 5542 5534 5529 5525 5523 5522 5523 5524 5526 5530 5538 5549 5558 5567 5576 5588 5596 5604 5611 5617 5625 5630 5636 5643 5647 5651 5654 5656 5657 5656 5656 5654 5652 5648 5643 5637 5630 5627 5622 5622
5633 5615 5598 5583 5569 5557 5547 5539 5531 5526 5522 5520 5518 5519 5520 5522 5525 5533 5547 5551 5564 5573 5581 5591 5599 5606 5610 5617 5625 5632 5638 5643 5646 5648 5650 5649 5649 5647 5644 5640 5635 5629 5625 5622 5619 5616 5618
5629 5612 5595 5579 5564 5552 5543 5536 5529 5523 5520 5518 5516 5516 5516 5517 5522 5528 5538 5545 5557 5569 5578 5586 5595 5602 5608 5614 5622 5629 5635 5639 5641 5643 5643 5643 5642 5639 5636 5633 5630 5628 5625 5622 5620 5617 5614
5627 5611 5593 5577 5561 5548 5539 5531 5524 5519 5517 5515 5514 5514 5513 5514 5519 5525 5533 5540 5553 5564 5574 5584 5592 5598 5606 5614 5620 5626 5631 5635 5637 5638 5636 5637 5637 5636 5635 5633 5631 5629 5626 5622 5620 5616 5610
5625 5608 5593 5579 5562 5544 5536 5526 5516 5513 5513 5511 5512 5512 5511 5511 5517 5521 5529 5542 5552 5563 5574 5582 5591 5598 5605 5611 5618 5624 5627 5631 5632 5632 5634 5635 5635 5634 5634 5632 5631 5630 5627 5623 5620 5617 5613
5627 5611 5597 5582 5564 5544 5533 5520 5509 5506 5506 5508 5510 5511 5510 5510 5516 5522 5531 5543 5553 5564 5573 5583 5590 5598 5605 5611 5619 5622 5625 5627 5627 5632 5632 5634 5634 5633 5633 5632 5632 5632 5628 5625 5621 5618 5614
5631 5615 5600 5586 5570 5549 5534 5517 5506 5505 5506 5508 5510 5513 5512 5514 5518 5528 5537 5548 5561 5570 5573 5583 5591 5599 5606 5611 5617 5621 5623 5624 5628 5630 5631 5632 5632 5633 5634 5634 5633 5632 5628 5624 5621 5618 5616
5633 5619 5606 5591 5578 5559 5543 5527 5516 5510 5509 5511 5514 5516 5518 5521 5528 5536 5544 5554 5563 5569 5576 5586 5593 5599 5606 5612 5616 5620 5621 5625 5629 5631 5632 5631 5634 5635 5636 5635 5633 5629 5625 5622 5622 5619 5616
5637 5623 5611 5597 5586 5573 5556 5542 5529 5521 5517 5518 5522 5522 5529 5534 5540 5546 5555 5564 5569 5573 5581 5589 5595 5602 5608 5612 5616 5620 5623 5626 5629 5630 5632 5634 5637 5637 5637 5636 5632 5627 5624 5621 5622 5621 5619
5641 5628 5615 5602 5593 5587 5573 5561 5553 5544 5536 5534 5538 5541 5544 5550 5555 5561 5566 5570 5575 5580 5586 5593 5599 5604 5609 5614 5620 5622 5625 5628 5630 5632 5635 5637 5638 5637 5636 5634 5632 5629 5627 5625 5624 5623 5622
5647 5634 5621 5607 5600 5597 5589 5579 5574 5569 5563 5558 5559 5560 5562 5564 5566 5569 5574 5577 5583 5588 5593 5598 5605 5609 5615 5619 5622 5624 5628 5630 5632 5635 5637 5638 5639 5637 5637 5636 5634 5632 5631 5630 5628 5627 5626
5654 5641 5628 5616 5604 5604 5601 5595 5588 5584 5580 5575 5575 5578 5578 5579 5580 5581 5585 5587 5590 5596 5602 5607 5612 5616 5618 5622 5625 5628 5633 5635 5637 5638 5638 5639 5641 5641 5639 5638 5636 5636 5634 5634 5633 5632 5631
5663 5650 5637 5625 5612 5611 5609 5606 5601 5597 5594 5591 5585 5591 5590 5591 5592 5592 5593 5597 5600 5605 5610 5613 5617 5620 5623 5626 5629 5633 5636 5638 5640 5641 5642 5643 5643 5643 5643 5641 5639 5640 5638 5638 5638 5638 5637
5672 5661 5649 5638 5623 5617 5616 5614 5611 5607 5605 5601 5599 5601 5601 5602 5602 5603 5605 5607 5609 5612 5617 5621 5622 5626 5630 5634 5637 5639 5641 5643 5644 5645 5646 5647 5647 5647 5647 5647 5644 5646 5644 5643 5643 5643 5642
5684 5673 5662 5652 5640 5629 5625 5623 5621 5621 5618 5607 5613 5614 5613 5614 5613 5613 5615 5616 5618 5620 5623 5627 5632 5636 5639 5641 5642 5644 5647 5649 5650 5650 5650 5651 5651 5651 5652 5651 5650 5650 5649 5648 5647 5648 5648
5697 5683 5675 5665 5656 5646 5638 5635 5635 5636 5628 5623 5628 5628 5627 5625 5625 5625 5627 5624 5629 5632 5634 5638 5641 5643 5646 5647 5649 5650 5652 5653 5654 5655 5655 5655 5655 5655 5655 5654 5654 5654 5653 5653 5652 5652 5652
5709 5698 5691 5681 5671 5664 5654 5648 5648 5646 5643 5640 5642 5642 5640 5639 5639 5639 5639 5638 5639 5642 5644 5646 5648 5650 5651 5653 5655 5656 5657 5658 5659 5659 5659 5659 5659 5658 5658 5657 5657 5656 5656 5655 5654 5655 5654
5717 5708 5696 5693 5684 5677 5670 5664 5658 5655 5653 5653 5652 5653 5653 5653 5651 5650 5651 5650 5650 5651 5653 5655 5657 5657 5658 5659 5660 5661 5661 5662 5661 5661 5661 5661 5660 5660 5659 5658 5657 5657 5656 5655 5655 5654 5654
5721 5716 5709 5700 5696 5686 5683 5678 5672 5668 5664 5661 5662 5663 5663 5664 5663 5662 5662 5661 5661 5662 5663 5664 5665 5665 5666 5665 5666 5666 5665 5665 5664 5664 5663 5663 5662 5661 5660 5660 5659 5659 5658 5657 5657 5657 5656
5724 5721 5716 5708 5703 5699 5690 5687 5686 5681 5677 5673 5669 5670 5670 5671 5669 5670 5670 5670 5670 5670 5670 5671 5671 5671 5670 5670 5670 5669 5668 5668 5667 5665 5664 5663 5663 5663 5662 5661 5661 5659 5659 5658 5657 5657 5655
5725 5725 5721 5715 5710 5707 5703 5696 5691 5691 5689 5685 5682 5679 5677 5677 5676 5675 5674 5675 5675 5675 5675 5674 5674 5673 5673 5672 5672 5672 5671 5670 5669 5668 5667 5666 5665 5665 5663 5663 5662 5661 5659 5658 5657 5656 5654
5725 5724 5722 5720 5714 5711 5708 5705 5700 5696 5694 5694 5692 5689 5687 5684 5682 5682 5681 5680 5678 5679 5679 5678 5678 5678 5677 5676 5675 5675 5674 5674 5673 5672 5671 5670 5668 5667 5666 5664 5664 5662 5660 5659 5658 5660 5655
5723 5722 5722 5720 5718 5715 5711 5710 5707 5703 5701 5700 5697 5696 5694 5691 5690 5688 5686 5685 5685 5683 5683 5683 5683 5682 5682 5680 5679 5679 5678 5677 5676 5675 5673 5672 5671 5669 5668 5665 5665 5662 5661 5659 5659 5656 5655
5720 5720 5719 5719 5719 5716 5714 5712 5712 5709 5706 5704 5702 5699 5698 5698 5696 5694 5692 5691 5689 5688 5686 5686 5685 5684 5684 5683 5682 5681 5679 5678 5677 5675 5674 5673 5671 5669 5668 5666 5664 5662 5661 5659 5657 5655 5653